Time,TemperatureF,DewpointF,PressureIn,WindDirection,WindDirectionDegrees,WindSpeedMPH,WindSpeedGustMPH,Humidity,HourlyPrecipIn,Conditions,Clouds,dailyrainin,SoftwareType,DateUTC
2013-01-08 00:02:00,31.0,27.0,-100.00,South,185,5.0,6.0,83,0.00,,,-99.99,,2013-01-08 06:02:00,
2013-01-08 00:12:00,31.0,27.0,-100.00,South,185,5.0,6.0,84,0.00,,,-99.99,,2013-01-08 06:12:00,
2013-01-08 00:22:00,31.0,27.0,-100.00,South,190,4.0,6.0,84,0.00,,,-99.99,,2013-01-08 06:22:00,
2013-01-08 00:32:00,32.0,27.0,-100.00,South,190,4.0,5.0,83,0.00,,,-99.99,,2013-01-08 06:32:00,
2013-01-08 00:42:00,32.0,27.0,-100.00,South,190,4.0,5.0,83,0.00,,,-99.99,,2013-01-08 06:42:00,
2013-01-08 00:52:00,31.0,27.0,-100.00,South,180,5.0,6.0,84,0.00,,,-99.99,,2013-01-08 06:52:00,
2013-01-08 01:02:00,31.0,27.0,-100.00,South,180,5.0,6.0,84,0.00,,,-99.99,,2013-01-08 07:02:00,
2013-01-08 01:12:00,31.0,27.0,-100.00,South,180,4.0,6.0,84,0.00,,,-99.99,,2013-01-08 07:12:00,
2013-01-08 01:22:00,31.0,27.0,-100.00,South,185,4.0,5.0,85,0.00,,,-99.99,,2013-01-08 07:22:00,
2013-01-08 01:32:00,30.0,26.0,-100.00,South,180,4.0,5.0,87,0.00,,,-99.99,,2013-01-08 07:32:00,
2013-01-08 01:42:00,30.0,26.0,-100.00,South,180,4.0,5.0,87,0.00,,,-99.99,,2013-01-08 07:42:00,
2013-01-08 01:52:00,30.0,27.0,-100.00,South,190,6.0,7.0,87,0.00,,,-99.99,,2013-01-08 07:52:00,
2013-01-08 02:02:00,30.0,27.0,-100.00,South,190,6.0,7.0,87,0.00,,,-99.99,,2013-01-08 08:02:00,
2013-01-08 02:12:00,31.0,27.0,-100.00,SSW,195,6.0,7.0,87,0.00,,,-99.99,,2013-01-08 08:12:00,
2013-01-08 02:22:00,31.0,27.0,-100.00,SSW,200,6.0,7.0,86,0.00,,,-99.99,,2013-01-08 08:22:00,
2013-01-08 02:32:00,30.0,26.0,-100.00,SSW,200,4.0,6.0,86,0.00,,,-99.99,,2013-01-08 08:32:00,
2013-01-08 02:42:00,30.0,26.0,-100.00,SSW,200,4.0,6.0,86,0.00,,,-99.99,,2013-01-08 08:42:00,
2013-01-08 02:52:00,29.0,26.0,-100.00,SSW,195,6.0,6.0,86,0.00,,,-99.99,,2013-01-08 08:52:00,
2013-01-08 03:02:00,29.0,26.0,-100.00,SSW,195,6.0,6.0,86,0.00,,,-99.99,,2013-01-08 09:02:00,
2013-01-08 03:12:00,29.0,26.0,-100.00,South,190,6.0,7.0,87,0.00,,,-99.99,,2013-01-08 09:12:00,
2013-01-08 03:22:00,29.0,26.0,-100.00,South,190,4.0,6.0,87,0.00,,,-99.99,,2013-01-08 09:22:00,
2013-01-08 03:32:00,28.0,25.0,-100.00,South,180,4.0,4.0,88,0.00,,,-99.99,,2013-01-08 09:32:00,
2013-01-08 03:42:00,28.0,25.0,-100.00,South,180,4.0,4.0,88,0.00,,,-99.99,,2013-01-08 09:42:00,
2013-01-08 03:52:00,28.0,25.0,-100.00,South,185,4.0,4.0,89,0.00,,,-99.99,,2013-01-08 09:52:00,
2013-01-08 04:02:00,28.0,25.0,-100.00,South,185,4.0,4.0,89,0.00,,,-99.99,,2013-01-08 10:02:00,
2013-01-08 04:12:00,28.0,25.0,-100.00,South,180,4.0,5.0,90,0.00,,,-99.99,,2013-01-08 10:12:00,
2013-01-08 04:22:00,28.0,26.0,-100.00,South,180,6.0,6.0,90,0.00,,,-99.99,,2013-01-08 10:22:00,
2013-01-08 04:32:00,29.0,27.0,-100.00,South,190,4.0,6.0,90,0.00,,,-99.99,,2013-01-08 10:32:00,
2013-01-08 04:42:00,29.0,27.0,-100.00,South,190,4.0,6.0,90,0.00,,,-99.99,,2013-01-08 10:42:00,
2013-01-08 04:52:00,29.0,27.0,-100.00,South,185,4.0,5.0,90,0.00,,,-99.99,,2013-01-08 10:52:00,
2013-01-08 05:02:00,29.0,27.0,-100.00,South,185,4.0,5.0,90,0.00,,,-99.99,,2013-01-08 11:02:00,
2013-01-08 05:12:00,29.0,26.0,-100.00,South,180,5.0,6.0,89,0.00,,,-99.99,,2013-01-08 11:12:00,
2013-01-08 05:22:00,28.0,26.0,-100.00,South,180,4.0,5.0,89,0.00,,,-99.99,,2013-01-08 11:22:00,
2013-01-08 05:32:00,27.0,25.0,-100.00,South,180,2.0,3.0,89,0.00,,,-99.99,,2013-01-08 11:32:00,
2013-01-08 05:42:00,27.0,25.0,-100.00,South,180,2.0,3.0,89,0.00,,,-99.99,,2013-01-08 11:42:00,
2013-01-08 05:53:00,27.0,25.0,-100.00,South,170,2.0,3.0,90,0.00,,,-99.99,,2013-01-08 11:53:00,
2013-01-08 06:02:00,27.0,25.0,-100.00,South,170,2.0,3.0,90,0.00,,,-99.99,,2013-01-08 12:02:00,
2013-01-08 06:12:00,27.0,25.0,-100.00,South,175,3.0,4.0,91,0.00,,,-99.99,,2013-01-08 12:12:00,
2013-01-08 06:22:00,27.0,25.0,-100.00,SSE,165,2.0,4.0,91,0.00,,,-99.99,,2013-01-08 12:22:00,
2013-01-08 06:32:00,27.0,24.0,-100.00,South,175,5.0,6.0,91,0.00,,,-99.99,,2013-01-08 12:32:00,
2013-01-08 06:42:00,27.0,24.0,-100.00,South,175,5.0,6.0,91,0.00,,,-99.99,,2013-01-08 12:42:00,
2013-01-08 06:53:00,27.0,25.0,-100.00,South,175,3.0,5.0,92,0.00,,,-99.99,,2013-01-08 12:53:00,
2013-01-08 07:03:00,27.0,25.0,-100.00,South,175,3.0,5.0,92,0.00,,,-99.99,,2013-01-08 13:03:00,
2013-01-08 07:12:00,26.0,24.0,-100.00,South,175,4.0,4.0,92,0.00,,,-99.99,,2013-01-08 13:12:00,
2013-01-08 07:22:00,26.0,24.0,-100.00,South,170,4.0,4.0,92,0.00,,,-99.99,,2013-01-08 13:22:00,
2013-01-08 07:32:00,27.0,26.0,-100.00,SSE,160,4.0,6.0,93,0.00,,,-99.99,,2013-01-08 13:32:00,
2013-01-08 07:42:00,27.0,26.0,-100.00,SSE,160,4.0,6.0,93,0.00,,,-99.99,,2013-01-08 13:42:00,
2013-01-08 07:52:00,28.0,27.0,-100.00,SSE,155,3.0,4.0,93,0.00,,,-99.99,,2013-01-08 13:52:00,
2013-01-08 08:02:00,28.0,27.0,-100.00,SSE,155,3.0,4.0,93,0.00,,,-99.99,,2013-01-08 14:02:00,
2013-01-08 08:12:00,29.0,27.0,-100.00,SSE,155,3.0,4.0,93,0.00,,,-99.99,,2013-01-08 14:12:00,
2013-01-08 08:23:00,28.0,27.0,-100.00,SSE,160,2.0,4.0,93,0.00,,,-99.99,,2013-01-08 14:23:00,
2013-01-08 08:33:00,28.0,27.0,-100.00,SSE,160,3.0,4.0,93,0.00,,,-99.99,,2013-01-08 14:33:00,
2013-01-08 08:42:00,28.0,27.0,-100.00,SSE,160,3.0,4.0,93,0.00,,,-99.99,,2013-01-08 14:42:00,
2013-01-08 08:53:00,29.0,27.0,-100.00,South,170,4.0,4.0,93,0.00,,,-99.99,,2013-01-08 14:53:00,
2013-01-08 09:02:00,29.0,27.0,-100.00,South,170,4.0,4.0,93,0.00,,,-99.99,,2013-01-08 15:02:00,
2013-01-08 09:12:00,30.0,29.0,-100.00,South,170,4.0,6.0,93,0.00,,,-99.99,,2013-01-08 15:12:00,
2013-01-08 09:22:00,31.0,30.0,-100.00,South,170,6.0,6.0,93,0.00,,,-99.99,,2013-01-08 15:22:00,
2013-01-08 09:33:00,33.0,31.0,-100.00,SSE,165,6.0,7.0,91,0.00,,,-99.99,,2013-01-08 15:33:00,
2013-01-08 09:42:00,33.0,31.0,-100.00,SSE,165,6.0,7.0,91,0.00,,,-99.99,,2013-01-08 15:42:00,
2013-01-08 09:52:00,34.0,31.0,-100.00,South,170,7.0,9.0,89,0.00,,,-99.99,,2013-01-08 15:52:00,
2013-01-08 10:03:00,34.0,31.0,-100.00,South,170,7.0,9.0,89,0.00,,,-99.99,,2013-01-08 16:03:00,
2013-01-08 10:12:00,34.0,31.0,-100.00,South,170,6.0,8.0,88,0.00,,,-99.99,,2013-01-08 16:12:00,
2013-01-08 10:22:00,35.0,32.0,-100.00,SSE,160,6.0,7.0,88,0.00,,,-99.99,,2013-01-08 16:22:00,
2013-01-08 10:33:00,37.0,33.0,-100.00,SSE,165,6.0,7.0,86,0.00,,,-99.99,,2013-01-08 16:33:00,
2013-01-08 10:42:00,37.0,33.0,-100.00,SSE,165,6.0,7.0,86,0.00,,,-99.99,,2013-01-08 16:42:00,
2013-01-08 10:52:00,39.0,33.0,-100.00,South,175,7.0,9.0,79,0.00,,,-99.99,,2013-01-08 16:52:00,
2013-01-08 11:03:00,39.0,33.0,-100.00,South,175,7.0,9.0,79,0.00,,,-99.99,,2013-01-08 17:03:00,
2013-01-08 11:12:00,40.0,33.0,-100.00,South,175,7.0,9.0,77,0.00,,,-99.99,,2013-01-08 17:12:00,
2013-01-08 11:23:00,40.0,33.0,-100.00,South,185,7.0,11.0,74,0.00,,,-99.99,,2013-01-08 17:23:00,
2013-01-08 11:33:00,41.0,32.0,-100.00,South,185,9.0,11.0,70,0.00,,,-99.99,,2013-01-08 17:33:00,
2013-01-08 11:43:00,41.0,32.0,-100.00,South,185,9.0,11.0,70,0.00,,,-99.99,,2013-01-08 17:43:00,
2013-01-08 11:53:00,41.0,32.0,-100.00,SSW,195,9.0,13.0,70,0.00,,,-99.99,,2013-01-08 17:53:00,
2013-01-08 12:03:00,41.0,32.0,-100.00,SSW,195,9.0,13.0,70,0.00,,,-99.99,,2013-01-08 18:03:00,
2013-01-08 12:12:00,42.0,32.0,-100.00,South,190,9.0,14.0,69,0.00,,,-99.99,,2013-01-08 18:12:00,
2013-01-08 12:23:00,42.0,32.0,-100.00,South,180,9.0,12.0,68,0.00,,,-99.99,,2013-01-08 18:23:00,
2013-01-08 12:33:00,42.0,32.0,-100.00,South,180,11.0,13.0,68,0.00,,,-99.99,,2013-01-08 18:33:00,
2013-01-08 12:43:00,42.0,32.0,-100.00,South,180,11.0,13.0,68,0.00,,,-99.99,,2013-01-08 18:43:00,
2013-01-08 12:53:00,44.0,33.0,-100.00,South,180,10.0,14.0,66,0.00,,,-99.99,,2013-01-08 18:53:00,
2013-01-08 13:03:00,44.0,33.0,-100.00,South,180,10.0,14.0,66,0.00,,,-99.99,,2013-01-08 19:03:00,
2013-01-08 13:12:00,45.0,33.0,-100.00,South,180,11.0,15.0,64,0.00,,,-99.99,,2013-01-08 19:12:00,
2013-01-08 13:22:00,46.0,33.0,-100.00,South,180,13.0,15.0,61,0.00,,,-99.99,,2013-01-08 19:22:00,
2013-01-08 13:32:00,47.0,33.0,-100.00,South,180,11.0,14.0,59,0.00,,,-99.99,,2013-01-08 19:32:00,
2013-01-08 13:42:00,47.0,33.0,-100.00,South,180,11.0,14.0,59,0.00,,,-99.99,,2013-01-08 19:42:00,
2013-01-08 13:53:00,47.0,33.0,-100.00,South,180,12.0,15.0,57,0.00,,,-99.99,,2013-01-08 19:53:00,
2013-01-08 14:03:00,47.0,33.0,-100.00,South,180,12.0,15.0,57,0.00,,,-99.99,,2013-01-08 20:03:00,
2013-01-08 14:12:00,47.0,33.0,-100.00,South,175,11.0,15.0,56,0.00,,,-99.99,,2013-01-08 20:12:00,
2013-01-08 14:22:00,48.0,33.0,-100.00,South,180,11.0,14.0,57,0.00,,,-99.99,,2013-01-08 20:22:00,
2013-01-08 14:33:00,47.0,33.0,-100.00,South,180,12.0,14.0,56,0.00,,,-99.99,,2013-01-08 20:33:00,
2013-01-08 14:43:00,47.0,33.0,-100.00,South,180,12.0,14.0,56,0.00,,,-99.99,,2013-01-08 20:43:00,
2013-01-08 14:53:00,47.0,32.0,-100.00,South,170,11.0,15.0,55,0.00,,,-99.99,,2013-01-08 20:53:00,
2013-01-08 15:03:00,47.0,32.0,-100.00,South,170,11.0,15.0,55,0.00,,,-99.99,,2013-01-08 21:03:00,
2013-01-08 15:12:00,47.0,32.0,-100.00,South,175,13.0,16.0,55,0.00,,,-99.99,,2013-01-08 21:12:00,
2013-01-08 15:22:00,47.0,32.0,-100.00,South,180,13.0,18.0,55,0.00,,,-99.99,,2013-01-08 21:22:00,
2013-01-08 15:33:00,47.0,31.0,-100.00,South,180,15.0,20.0,54,0.00,,,-99.99,,2013-01-08 21:33:00,
2013-01-08 15:43:00,47.0,31.0,-100.00,South,180,15.0,20.0,54,0.00,,,-99.99,,2013-01-08 21:43:00,
2013-01-08 15:53:00,46.0,31.0,-100.00,South,185,11.0,17.0,55,0.00,,,-99.99,,2013-01-08 21:53:00,
2013-01-08 16:03:00,46.0,31.0,-100.00,South,185,11.0,17.0,55,0.00,,,-99.99,,2013-01-08 22:03:00,
2013-01-08 16:12:00,46.0,31.0,-100.00,South,190,12.0,14.0,55,0.00,,,-99.99,,2013-01-08 22:12:00,
2013-01-08 16:22:00,45.0,31.0,-100.00,South,185,12.0,15.0,56,0.00,,,-99.99,,2013-01-08 22:22:00,
2013-01-08 16:33:00,45.0,30.0,-100.00,SSW,195,9.0,12.0,57,0.00,,,-99.99,,2013-01-08 22:33:00,
2013-01-08 16:42:00,45.0,30.0,-100.00,SSW,195,9.0,12.0,57,0.00,,,-99.99,,2013-01-08 22:42:00,
2013-01-08 16:52:00,43.0,30.0,-100.00,SSW,205,8.0,11.0,58,0.00,,,-99.99,,2013-01-08 22:52:00,
2013-01-08 17:02:00,43.0,30.0,-100.00,SSW,205,8.0,11.0,58,0.00,,,-99.99,,2013-01-08 23:02:00,
2013-01-08 17:12:00,43.0,30.0,-100.00,SSW,200,10.0,11.0,59,0.00,,,-99.99,,2013-01-08 23:12:00,
2013-01-08 17:22:00,43.0,30.0,-100.00,SSW,200,11.0,13.0,58,0.00,,,-99.99,,2013-01-08 23:22:00,
2013-01-08 17:32:00,42.0,29.0,-100.00,SSW,200,9.0,12.0,59,0.00,,,-99.99,,2013-01-08 23:32:00,
2013-01-08 17:43:00,42.0,29.0,-100.00,SSW,200,9.0,12.0,59,0.00,,,-99.99,,2013-01-08 23:43:00,
2013-01-08 17:52:00,41.0,29.0,-100.00,SSW,205,7.0,9.0,62,0.00,,,-99.99,,2013-01-08 23:52:00,
2013-01-08 18:02:00,41.0,29.0,-100.00,SSW,205,7.0,9.0,62,0.00,,,-99.99,,2013-01-09 00:02:00,
2013-01-08 18:12:00,41.0,30.0,-100.00,SSW,200,7.0,9.0,63,0.00,,,-99.99,,2013-01-09 00:12:00,
2013-01-08 18:22:00,41.0,30.0,-100.00,SSW,200,7.0,9.0,63,0.00,,,-99.99,,2013-01-09 00:22:00,
2013-01-08 18:33:00,41.0,30.0,-100.00,SSW,200,7.0,9.0,65,0.00,,,-99.99,,2013-01-09 00:33:00,
2013-01-08 18:42:00,41.0,30.0,-100.00,SSW,200,7.0,9.0,65,0.00,,,-99.99,,2013-01-09 00:42:00,
2013-01-08 18:52:00,40.0,30.0,-100.00,SSW,200,7.0,9.0,66,0.00,,,-99.99,,2013-01-09 00:52:00,
2013-01-08 19:02:00,40.0,30.0,-100.00,SSW,200,7.0,9.0,66,0.00,,,-99.99,,2013-01-09 01:02:00,
2013-01-08 19:12:00,40.0,30.0,-100.00,SSW,200,6.0,9.0,67,0.00,,,-99.99,,2013-01-09 01:12:00,
2013-01-08 19:22:00,40.0,30.0,-100.00,SSW,200,7.0,7.0,68,0.00,,,-99.99,,2013-01-09 01:22:00,
2013-01-08 19:32:00,40.0,31.0,-100.00,SSW,195,7.0,9.0,69,0.00,,,-99.99,,2013-01-09 01:32:00,
2013-01-08 19:42:00,40.0,31.0,-100.00,SSW,195,7.0,9.0,69,0.00,,,-99.99,,2013-01-09 01:42:00,
2013-01-08 19:52:00,40.0,31.0,-100.00,SSW,205,7.0,10.0,69,0.00,,,-99.99,,2013-01-09 01:52:00,
2013-01-08 20:02:00,40.0,31.0,-100.00,SSW,205,7.0,10.0,69,0.00,,,-99.99,,2013-01-09 02:02:00,
2013-01-08 20:12:00,40.0,31.0,-100.00,SSW,210,8.0,11.0,69,0.00,,,-99.99,,2013-01-09 02:12:00,
2013-01-08 20:22:00,41.0,32.0,-100.00,SSW,210,9.0,12.0,69,0.00,,,-99.99,,2013-01-09 02:22:00,
2013-01-08 20:33:00,41.0,31.0,-100.00,SW,225,8.0,11.0,67,0.00,,,-99.99,,2013-01-09 02:33:00,
2013-01-08 20:42:00,41.0,31.0,-100.00,SW,225,8.0,11.0,67,0.00,,,-99.99,,2013-01-09 02:42:00,
2013-01-08 20:52:00,40.0,31.0,-100.00,SW,220,7.0,8.0,68,0.00,,,-99.99,,2013-01-09 02:52:00,
2013-01-08 21:03:00,40.0,31.0,-100.00,SW,220,7.0,8.0,68,0.00,,,-99.99,,2013-01-09 03:03:00,
2013-01-08 21:12:00,39.0,31.0,-100.00,SW,220,6.0,7.0,70,0.00,,,-99.99,,2013-01-09 03:12:00,
2013-01-08 21:22:00,39.0,31.0,-100.00,SW,230,6.0,7.0,71,0.00,,,-99.99,,2013-01-09 03:22:00,
2013-01-08 21:33:00,38.0,31.0,-100.00,SW,235,6.0,9.0,73,0.00,,,-99.99,,2013-01-09 03:33:00,
2013-01-08 21:42:00,38.0,31.0,-100.00,SW,235,6.0,9.0,73,0.00,,,-99.99,,2013-01-09 03:42:00,
2013-01-08 21:52:00,38.0,31.0,-100.00,WSW,240,7.0,9.0,75,0.00,,,-99.99,,2013-01-09 03:52:00,
2013-01-08 22:02:00,38.0,31.0,-100.00,WSW,240,7.0,9.0,75,0.00,,,-99.99,,2013-01-09 04:02:00,
2013-01-08 22:12:00,39.0,32.0,-100.00,WSW,240,7.0,10.0,75,0.00,,,-99.99,,2013-01-09 04:12:00,
2013-01-08 22:22:00,39.0,32.0,-100.00,WSW,245,7.0,10.0,75,0.00,,,-99.99,,2013-01-09 04:22:00,
2013-01-08 22:32:00,39.0,32.0,-100.00,WSW,255,10.0,12.0,76,0.00,,,-99.99,,2013-01-09 04:32:00,
2013-01-08 22:42:00,39.0,32.0,-100.00,WSW,255,10.0,12.0,76,0.00,,,-99.99,,2013-01-09 04:42:00,
2013-01-08 22:52:00,38.0,32.0,-100.00,West,260,9.0,12.0,78,0.00,,,-99.99,,2013-01-09 04:52:00,
2013-01-08 23:03:00,38.0,32.0,-100.00,West,260,9.0,12.0,78,0.00,,,-99.99,,2013-01-09 05:03:00,
2013-01-08 23:12:00,37.0,31.0,-100.00,WSW,255,9.0,12.0,79,0.00,,,-99.99,,2013-01-09 05:12:00,
2013-01-08 23:22:00,37.0,31.0,-100.00,WSW,255,9.0,10.0,80,0.00,,,-99.99,,2013-01-09 05:22:00,
2013-01-08 23:33:00,36.0,31.0,-100.00,WSW,255,8.0,12.0,81,0.00,,,-99.99,,2013-01-09 05:33:00,
2013-01-08 23:42:00,36.0,31.0,-100.00,WSW,255,8.0,12.0,81,0.00,,,-99.99,,2013-01-09 05:42:00,
2013-01-08 23:52:00,36.0,31.0,-100.00,West,265,8.0,10.0,82,0.00,,,-99.99,,2013-01-09 05:52:00,